CW5260 Weather Reports


Display with metric or nautical units.
time (UTC)temp
F
wind
direction
speed
MPH
gust
MPH
rain 1hr
in
rain 24hr
in
rain mn
in
humidity
%
barometer
mb
20181211044649 25 55 0.0 1.0 0.00 0.00 0.00 87 1022.8
20181211043150 25 55 1.0 1.0 0.00 0.00 0.00 87 1022.8
20181211041650 25 53 1.0 2.0 0.00 0.00 0.00 86 1022.9
20181211040150 25 28 1.0 2.0 0.00 0.00 0.00 87 1023.0
20181211035150 25 28 0.0 1.0 0.00 0.00 0.00 87 1023.0
20181211032650 25 24 0.0 0.0 0.00 0.00 0.00 85 1023.1
20181211032150 25 24 0.0 0.0 0.00 0.00 0.00 85 1023.1
20181211031149 25 24 0.0 0.0 0.00 0.00 0.00 92 1023.1
20181211030650 25 24 0.0 1.0 0.00 0.00 0.00 85 1023.1
20181211024150 25 24 0.0 1.0 0.00 0.00 0.00 85 1023.1
20181211023650 26 24 0.0 1.0 0.00 0.00 0.00 84 1023.1
20181211022150 26 24 0.0 1.0 0.00 0.00 0.00 83 1023.0
20181211020149 27 24 1.0 1.0 0.00 0.00 0.00 83 1023.0
20181211015649 27 24 1.0 2.0 0.00 0.00 0.00 83 1022.9
20181211015150 27 24 1.0 2.0 0.00 0.00 0.00 83 1022.9
20181211014649 27 24 1.0 2.0 0.00 0.00 0.00 83 1022.9
20181211014149 27 24 1.0 2.0 0.00 0.00 0.00 82 1022.9
20181211013654 27 24 1.0 2.0 0.00 0.00 0.00 82 1022.9
20181211013150 27 24 1.0 2.0 0.00 0.00 0.00 82 1022.8
20181211012650 27 24 0.0 0.0 0.00 0.00 0.00 81 1022.8
20181211012149 27 24 0.0 0.0 0.00 0.00 0.00 81 1022.8
20181211011650 27 24 0.0 0.0 0.00 0.00 0.00 81 1022.8
20181211011150 27 26 0.0 0.0 0.00 0.00 0.00 81 1022.8
20181211005649 28 26 0.0 0.0 0.00 0.00 0.00 81 1022.9
20181211003650 28 26 0.0 0.0 0.00 0.00 0.00 80 1022.8
20181211002650 28 26 0.0 0.0 0.00 0.00 0.00 80 1022.8
20181211000650 28 26 0.0 0.0 0.00 0.00 0.00 80 1022.6
20181210235150 28 18 0.0 0.0 0.00 0.00 0.00 79 1022.7
20181210234649 28 20 1.0 1.0 0.00 0.00 0.00 79 1022.6
20181210234150 29 21 2.0 3.0 0.00 0.00 0.00 79 1022.5
20181210233150 29 23 1.0 2.0 0.00 0.00 0.00 79 1022.5
20181210232650 29 14 1.0 2.0 0.00 0.00 0.00 79 1022.5
20181210232150 29 7 1.0 3.0 0.00 0.00 0.00 79 1022.4
20181210231650 29 8 1.0 2.0 0.00 0.00 0.00 79 1022.5
20181210230150 29 4 2.0 5.0 0.00 0.00 0.00 79 1022.5
20181210223650 29 349 3.0 5.0 0.00 0.00 0.00 78 1022.3
20181210222650 29 346 3.0 4.0 0.00 0.00 0.00 78 1022.1
20181210222150 29 343 3.0 5.0 0.00 0.00 0.00 78 1022.1
20181210220650 30 338 3.0 6.0 0.00 0.00 0.00 76 1021.9
20181210215650 30 343 3.0 4.0 0.00 0.00 0.00 76 1021.8
20181210214650 31 345 3.0 4.0 0.00 0.00 0.00 75 1021.8
20181210213150 31 347 3.0 5.0 0.00 0.00 0.00 74 1021.8
20181210212650 31 345 2.0 5.0 0.00 0.00 0.00 74 1021.8
20181210211650 32 349 3.0 5.0 0.00 0.00 0.00 73 1021.7
20181210205650 33 356 4.0 6.0 0.00 0.00 0.00 72 1021.6
20181210205150 33 354 4.0 8.0 0.00 0.00 0.00 72 1021.5
20181210204758 33 346 4.0 10.0 0.00 0.00 0.00 72 1021.5
20181210204150 33 351 4.0 8.0 0.00 0.00 0.00 72 1021.5
20181210203150 34 344 5.0 11.0 0.00 0.00 0.00 71 1021.5
20181210202650 34 356 6.0 10.0 0.00 0.00 0.00 71 1021.5
20181210201150 34 11 4.0 10.0 0.00 0.00 0.00 70 1021.3
20181210200150 35 341 4.0 11.0 0.00 0.00 0.00 70 1021.3
20181210195150 35 342 3.0 10.0 0.00 0.00 0.00 69 1021.1
20181210194150 35 10 4.0 9.0 0.00 0.00 0.00 68 1021.3
20181210193150 36 333 5.0 6.0 0.00 0.00 0.00 68 1021.3
20181210192650 36 351 6.0 12.0 0.00 0.00 0.00 67 1021.3
20181210192150 36 358 5.0 11.0 0.00 0.00 0.00 67 1021.3
20181210191650 36 0 4.0 12.0 0.00 0.00 0.00 67 1021.4
20181210191150 36 351 4.0 6.0 0.00 0.00 0.00 67 1021.4
20181210190650 36 9 4.0 10.0 0.00 0.00 0.00 67 1021.3
20181210184650 36 353 4.0 7.0 0.00 0.00 0.00 69 1021.4
20181210184150 36 7 4.0 6.0 0.00 0.00 0.00 69 1021.4
20181210183650 36 29 3.0 8.0 0.00 0.00 0.00 70 1021.4
20181210182650 35 357 4.0 6.0 0.00 0.00 0.00 72 1021.6
20181210181650 35 308 2.0 6.0 0.00 0.00 0.00 73 1021.7
20181210180650 34 0 4.0 6.0 0.00 0.00 0.00 74 1021.6
20181210175150 34 14 3.0 7.0 0.00 0.00 0.00 75 1021.8
20181210173150 33 5 4.0 6.0 0.00 0.00 0.00 76 1022.0
20181210172150 33 326 3.0 5.0 0.00 0.00 0.00 76 1022.0
20181210171650 33 323 3.0 5.0 0.00 0.00 0.00 77 1022.0
20181210171150 33 354 3.0 4.0 0.00 0.00 0.00 77 1022.1
20181210170650 33 338 3.0 7.0 0.00 0.00 0.00 77 1022.1
20181210170150 33 334 4.0 5.0 0.00 0.00 0.00 78 1022.2
20181210165150 32 1 2.0 7.0 0.00 0.00 0.00 79 1022.4
20181210163650 32 329 2.0 4.0 0.00 0.00 0.00 81 1022.5
20181210163150 31 356 2.0 3.0 0.00 0.00 0.00 81 1022.6
20181210162650 31 326 2.0 5.0 0.00 0.00 0.00 81 1022.7
20181210162150 31 319 2.0 3.0 0.00 0.00 0.00 82 1022.7
20181210161150 30 336 2.0 4.0 0.00 0.00 0.00 84 1022.8
20181210160150 30 331 3.0 4.0 0.00 0.00 0.00 85 1023.0
20181210155150 29 6 2.0 4.0 0.00 0.00 0.00 85 1023.0
20181210153650 28 328 2.0 4.0 0.00 0.00 0.00 86 1023.1
20181210152650 28 325 2.0 4.0 0.00 0.00 0.00 87 1023.0
20181210150150 26 315 1.0 2.0 0.00 0.00 0.00 88 1023.1
20181210145650 26 316 0.0 3.0 0.00 0.00 0.00 88 1023.0
20181210145150 26 311 0.0 0.0 0.00 0.00 0.00 88 1023.1
20181210144650 25 309 0.0 0.0 0.00 0.00 0.00 89 1023.0
20181210143650 25 318 0.0 0.0 0.00 0.00 0.00 89 1022.8
20181210143150 25 325 0.0 0.0 0.00 0.00 0.00 90 1022.8
20181210142650 25 325 0.0 0.0 0.00 0.00 0.00 90 1022.8
20181210142150 24 324 0.0 0.0 0.00 0.00 0.00 90 1022.8
20181210141150 24 319 0.0 0.0 0.00 0.00 0.00 91 1022.7
20181210140651 24 321 0.0 0.0 0.00 0.00 0.00 91 1022.5
20181210140150 24 335 0.0 0.0 0.00 0.00 0.00 91 1022.5
20181210135151 23 301 1.0 3.0 0.00 0.00 0.00 91 1022.6
20181210134650 23 316 0.0 3.0 0.00 0.00 0.00 91 1022.5
20181210134150 23 327 0.0 0.0 0.00 0.00 0.00 91 1022.6
20181210133716 23 327 0.0 0.0 0.00 0.00 0.00 91 1022.5
20181210133150 23 327 0.0 0.0 0.00 0.00 0.00 91 1022.5
20181210131151 23 327 0.0 0.0 0.00 0.00 0.00 92 1022.2
20181210130150 23 327 0.0 0.0 0.00 0.00 0.00 92 1022.1
20181210125651 22 327 0.0 0.0 0.00 0.00 0.00 92 1022.1
20181210125150 22 327 0.0 0.0 0.00 0.00 0.00 92 1022.0
20181210124151 22 327 0.0 2.0 0.00 0.00 0.00 92 1022.0
20181210123150 22 327 0.0 0.0 0.00 0.00 0.00 92 1021.9
20181210122150 22 327 0.0 0.0 0.00 0.00 0.00 92 1021.9
20181210121150 22 329 1.0 3.0 0.00 0.00 0.00 92 1021.9
20181210120650 22 273 1.0 3.0 0.00 0.00 0.00 92 1021.8
20181210120150 22 280 1.0 4.0 0.00 0.00 0.00 93 1021.8
20181210115651 21 286 1.0 2.0 0.00 0.00 0.00 93 1021.7
20181210115150 21 286 1.0 2.0 0.00 0.00 0.00 93 1021.8
20181210114151 21 280 1.0 3.0 0.00 0.00 0.00 93 1021.9
20181210113650 21 292 1.0 3.0 0.00 0.00 0.00 93 1021.9
20181210113151 21 293 1.0 3.0 0.00 0.00 0.00 93 1021.8
20181210112650 21 314 1.0 3.0 0.00 0.00 0.00 93 1021.8
20181210111651 20 318 1.0 4.0 0.00 0.00 0.00 93 1021.8
20181210111150 20 302 1.0 3.0 0.00 0.00 0.00 93 1021.8
20181210105151 19 347 1.0 2.0 0.00 0.00 0.00 93 1021.6
20181210104650 19 349 1.0 2.0 0.00 0.00 0.00 93 1021.5
20181210104150 19 349 1.0 2.0 0.00 0.00 0.00 93 1021.4
20181210102650 18 349 0.0 1.0 0.00 0.00 0.00 93 1021.4
20181210101651 18 349 1.0 1.0 0.00 0.00 0.00 93 1021.4
20181210101151 18 349 1.0 2.0 0.00 0.00 0.00 92 1021.4
20181210100650 18 349 0.0 2.0 0.00 0.00 0.00 92 1021.4
20181210100150 18 349 0.0 1.0 0.00 0.00 0.00 92 1021.4
20181210095650 18 349 1.0 1.0 0.00 0.00 0.00 92 1021.4
20181210094650 18 5 0.0 2.0 0.00 0.00 0.00 92 1021.4
20181210093651 18 5 0.0 1.0 0.00 0.00 0.00 92 1021.6
20181210093151 18 5 1.0 1.0 0.00 0.00 0.00 92 1021.6
20181210092651 18 5 0.0 2.0 0.00 0.00 0.00 92 1021.6
20181210091650 18 5 0.0 0.0 0.00 0.00 0.00 92 1021.5
20181210090651 18 5 0.0 0.0 0.00 0.00 0.00 91 1021.4
20181210090151 18 5 0.0 0.0 0.00 0.00 0.00 91 1021.4
20181210085150 18 5 1.0 2.0 0.00 0.00 0.00 91 1021.5
20181210084651 18 7 2.0 3.0 0.00 0.00 0.00 91 1021.5
20181210084151 18 20 2.0 3.0 0.00 0.00 0.00 91 1021.5
20181210082150 18 24 1.0 2.0 0.00 0.00 0.00 90 1021.8
20181210070151 21 0 1.0 3.0 0.00 0.00 0.00 85 1021.5
20181210065151 21 355 1.0 3.0 0.00 0.00 0.00 85 1021.5
20181210064651 21 355 1.0 2.0 0.00 0.00 0.00 85 1021.5
20181210064151 21 355 2.0 2.0 0.00 0.00 0.00 85 1021.5
20181210062151 21 355 0.0 0.0 0.00 0.00 0.00 85 1021.5
20181210061151 21 355 0.0 0.0 0.00 0.00 0.00 84 1021.5
20181210060231 21 355 0.0 0.0 0.00 0.00 0.00 83 1021.5
20181210054651 22 355 0.0 0.0 0.00 0.00 0.00 82 1021.5
20181210054151 22 355 0.0 0.0 0.00 0.00 0.00 82 1021.5
20181210053651 22 355 0.0 0.0 0.00 0.00 0.00 82 1021.6
20181210053151 22 355 0.0 0.0 0.00 0.00 0.00 82 1021.7
20181210052651 22 355 0.0 0.0 0.00 0.00 0.00 82 1021.8
20181210052151 23 355 0.0 0.0 0.00 0.00 0.00 81 1021.8
20181210050651 23 355 1.0 0.0 0.00 0.00 0.00 82 1022.0
20181210045151 23 355 0.0 1.0 0.00 0.00 0.00 82 1022.3